Weather History for Ponca City, OK

Change the Weather History Date:

Friday, November 2, 2012

  Actual Average Record
Temperature  
Mean Temperature 72 °F -  
Max Temperature 90 °F 61 °F 90 °F (2012)
Min Temperature 54 °F 40 °F 18 °F (1966)
Cooling Degree Days 6    
Growing Degree Days 22 (Base 50)    
Moisture  
Dew Point 43 °F    
Average Humidity 45    
Maximum Humidity 69    
Minimum Humidity 20    
Precipitation  
Precipitation 0.00 in - - ()
Sea Level Pressure  
Sea Level Pressure 29.83 in    
Wind  
Wind Speed 7 mph (South)    
Max Wind Speed 20 mph    
Max Gust Speed 26 mph    
Visibility 10 miles    
Events      
Averages and records for this station are not official NWS values.
T = Trace of Precipitation, MM = Missing Value Source: NWS Daily Summary

Daily Weather History Graph

Daily Weather History Graph

Search for Another Location

Airport:

Trip Planner

Search our weather history database for the weather conditions in past years. The results will help you decide how hot, cold, wet, or windy it might be!

Date:

Astronomy

Nov. 02, 2012 Rise Set
Actual Time 7:53 AM CDT 6:29 PM CDT
Civil Twilight 7:26 AM CDT 6:56 PM CDT
Nautical Twilight 6:56 AM CDT 7:27 PM CDT
Astronomical Twilight 6:25 AM CDT 7:57 PM CDT
Moon 9:21 PM CDT (11/2) 11:11 AM CDT (11/2)
Length of Visible Light 11h 29m
Length of Day
10h 36m
Waning Gibbous, 87% of the Moon is Illuminated
Nov 2
Waning Gibbous
Nov 6
Last Quarter
Nov 13
New
Nov 20
First Quarter
Nov 28
Full

Hourly Weather History & Observations

Time (CDT) Temp. Dew Point Humidity Pressure Visibility Wind Dir Wind Speed Gust Speed Precip Events Conditions
12:53 AM 57.9 °F 41.0 °F 53% 29.88 in 10.0 mi SSE 3.5 mph - N/A   Clear
1:53 AM 57.2 °F 41.0 °F 55% 29.90 in 10.0 mi SE 5.8 mph - N/A   Clear
2:53 AM 55.0 °F 42.1 °F 62% 29.87 in 10.0 mi SE 5.8 mph - N/A   Clear
3:53 AM 55.0 °F 43.0 °F 64% 29.86 in 10.0 mi SE 4.6 mph - N/A   Clear
4:53 AM 54.0 °F 43.0 °F 66% 29.85 in 10.0 mi SE 4.6 mph - N/A   Clear
5:53 AM 54.0 °F 43.0 °F 66% 29.85 in 10.0 mi SE 6.9 mph - N/A   Clear
6:53 AM 54.0 °F 44.1 °F 69% 29.84 in 10.0 mi SE 8.1 mph - N/A   Clear
7:53 AM 54.0 °F 44.1 °F 69% 29.85 in 10.0 mi SE 5.8 mph - N/A   Clear
8:53 AM 55.9 °F 45.0 °F 67% 29.86 in 10.0 mi SSE 5.8 mph - N/A   Clear
9:53 AM 61.0 °F 46.0 °F 58% 29.87 in 10.0 mi SSE 8.1 mph - N/A   Clear
10:53 AM 68.0 °F 46.0 °F 45% 29.86 in 10.0 mi South 5.8 mph - N/A   Clear
11:53 AM 75.9 °F 46.0 °F 35% 29.84 in 10.0 mi South 6.9 mph - N/A   Clear
12:53 PM 82.0 °F 45.0 °F 27% 29.81 in 10.0 mi SW 8.1 mph 19.6 mph N/A   Clear
1:53 PM 87.1 °F 44.1 °F 22% 29.76 in 10.0 mi SSW 13.8 mph 25.3 mph N/A   Clear
2:53 PM 89.1 °F 44.1 °F 21% 29.74 in 10.0 mi SSW 19.6 mph 26.5 mph N/A   Clear
3:53 PM 89.1 °F 43.0 °F 20% 29.72 in 10.0 mi SSW 17.3 mph 26.5 mph N/A   Clear
4:53 PM 87.1 °F 45.0 °F 23% 29.73 in 10.0 mi SSW 10.4 mph 24.2 mph N/A   Clear
5:53 PM 84.0 °F 45.0 °F 25% 29.75 in 10.0 mi SSW 10.4 mph 23.0 mph N/A   Clear
6:53 PM 80.1 °F 46.9 °F 31% 29.77 in 10.0 mi SSW 6.9 mph - N/A   Clear
7:53 PM 73.0 °F 39.0 °F 29% 29.81 in 10.0 mi NNW 10.4 mph 17.3 mph N/A   Clear
8:53 PM 66.0 °F 36.0 °F 33% 29.84 in 10.0 mi NW 5.8 mph - N/A   Clear
9:53 PM 63.0 °F 37.9 °F 40% 29.86 in 10.0 mi NW 9.2 mph - N/A   Clear
10:53 PM 60.1 °F 42.1 °F 51% 29.89 in 10.0 mi NW 10.4 mph - N/A   Clear
11:53 PM 59.0 °F 42.1 °F 53% 29.91 in 10.0 mi NNW 10.4 mph - N/A   Clear